This demonstration page uses our WeatherBlox Daily Observations layout. Learn more.

Left ArrowRight Arrow

40.97296, -117.73568

Hourly Observations for August 1, 2016

Temp ( °F °C ) Dew Point ( °F °C ) Humidity (%) Winds ( mph kmh ) Pressure ( in mb ) Visibility ( mi km ) Precip ( " mm )
12:56 am 00:56 Clear 75 23.9 21 -6.1 13 13 Calm 29.83 1010 10 16 0.00 0.00
1:56 am 01:56 Clear 66 18.9 21 -6.1 18 18 Calm 29.85 1011 10 16 0.00 0.00
2:56 am 02:56 Clear 64 17.8 22 -5.6 20 20 Calm 29.86 1011 10 16 0.00 0.00
3:56 am 03:56 Clear 61 16.1 23 -5 23 23 NNE 5 7 29.87 1012 10 16 0.00 0.00
4:56 am 04:56 Clear 56 13.3 23 -5 28 28 Calm 29.89 1012 10 16 0.00 0.00
5:56 am 05:56 Sunny 51 10.6 24 -4.4 35 35 SE 8 13 29.92 1013 10 16 0.00 0.00
6:56 am 06:56 Sunny 58 14.4 25 -3.9 28 28 S 3 6 29.93 1014 10 16 0.00 0.00
7:56 am 07:56 Sunny 67 19.4 26 -3.3 21 21 SSE 3 6 29.94 1014 10 16 0.00 0.00
8:56 am 08:56 Sunny 76 24.4 24 -4.4 14 14 Calm 29.95 1014 10 16 0.00 0.00
9:56 am 09:56 Sunny 82 27.8 26 -3.3 13 13 undefined N/A 29.93 1013 10 16 0.00 0.00
10:56 am 10:56 Sunny 86 30 27 -2.8 12 12 VRB 5 7 29.92 1013 10 16 0.00 0.00
11:56 am 11:56 Sunny 90 32.2 23 -5 9 9 WNW 13 20 29.91 1013 10 16 0.00 0.00
12:56 pm 12:56 Sunny N/A N/A N/A undefined N/A N/A N/A 0.00 0.00
1:56 pm 13:56 Sunny N/A N/A N/A undefined N/A N/A 10 16 0.00 0.00
2:56 pm 14:56 Sunny N/A N/A N/A ESE 3 6 N/A 10 16 0.00 0.00
3:56 pm 15:56 Sunny 96 35.6 23 -5 7 7 W 10 17 29.85 1011 10 16 0.00 0.00
4:56 pm 16:56 Mostly Sunny 98 36.7 31 -0.6 9 9 WNW 16 26 29.74 1007 10 16 0.00 0.00
5:56 pm 17:56 Sunny 95 35 22 -5.6 7 7 WNW 13 20 29.86 1011 10 16 0.00 0.00
6:56 pm 18:56 Sunny 93 33.9 22 -5.6 7 7 WNW 13 20 29.85 1011 10 16 0.00 0.00
7:56 pm 19:56 Sunny 85 29.4 22 -5.6 10 10 W 6 9 29.86 1011 10 16 0.00 0.00
8:56 pm 20:56 Clear 73 22.8 22 -5.6 15 15 Calm 29.88 1012 10 16 0.00 0.00
9:56 pm 21:56 Clear 69 20.6 25 -3.9 19 19 Calm 29.89 1012 10 16 0.00 0.00
10:56 pm 22:56 Clear 65 18.3 27 -2.8 24 24 SE 3 6 29.90 1013 10 16 0.00 0.00
11:56 pm 23:56 Clear 62 16.7 26 -3.3 25 25 SE 6 9 29.91 1013 10 16 0.00 0.00

Powered by AerisWeather